Zurück zum Katalog

STARLINK-31198

AktivKommunikationVLEO
NORAD 58867·PAYLOAD·🇺🇸 United States

Gestartet Jan 29, 2024 von Cape Canaveral Space Force Station

Loading…

Nächste Überflüge (nächste 24 Stunden)

TLE

AktuellSource: CelesTrak SupGP

Epoche: Sep 15, 2026, 02:59 UTC

1 58867C 24019Q   26258.12479167 -.00020760  00000+0 -75205-3 0  2586
2 58867  42.9997 258.8916 0001258 266.4999 184.9754 15.27582816    10

Verfolge STARLINK-31198 in Echtzeit mit AllMySat

Download on the App Store